Weather History for Stephenville, TX

Change the Weather History Date:

Friday, November 30, 2012

  Actual Average Record
Temperature  
Mean Temperature 64 °F -  
Max Temperature 77 °F 60 °F 84 °F (1950)
Min Temperature 50 °F 35 °F 15 °F (1979)
Degree Days  
Heating Degree Days 2    
Growing Degree Days 14 (Base 50)    
Moisture  
Dew Point 52 °F    
Average Humidity 71    
Maximum Humidity 100    
Minimum Humidity 41    
Precipitation  
Precipitation 0.00 in - - ()
Sea Level Pressure  
Sea Level Pressure 30.09 in    
Wind  
Wind Speed 7 mph (South)    
Max Wind Speed 15 mph    
Max Gust Speed 22 mph    
Visibility 8 miles    
Events      
Averages and records for this station are not official NWS values.
T = Trace of Precipitation, MM = Missing Value Source: NWS Daily Summary

Daily Weather History Graph

Daily Weather History Graph

Search for Another Location

Airport:

Trip Planner

Search our weather history database for the weather conditions in past years. The results will help you decide how hot, cold, wet, or windy it might be!

Date:

Astronomy

Nov. 30, 2012 Rise Set
Actual Time 7:15 AM CST 5:27 PM CST
Civil Twilight 6:48 AM CST 5:54 PM CST
Nautical Twilight 6:18 AM CST 6:24 PM CST
Astronomical Twilight 5:48 AM CST 6:54 PM CST
Moon 7:22 PM CST (11/30) 8:48 AM CST (11/30)
Length of Visible Light 11h 05m
Length of Day
10h 12m
Waning Gibbous, 96% of the Moon is Illuminated
Nov 30
Waning Gibbous
Dec 6
Last Quarter
Dec 13
New
Dec 19
First Quarter
Dec 28
Full

Hourly Weather History & Observations

Time (CST) Temp. Dew Point Humidity Pressure Visibility Wind Dir Wind Speed Gust Speed Precip Events Conditions
12:15 AM 53.6 °F 48.2 °F 82% 30.15 in 10.0 mi South 5.8 mph - N/A   Clear
12:35 AM 53.6 °F 48.2 °F 82% 30.14 in 10.0 mi South 4.6 mph - N/A   Clear
12:55 AM 53.6 °F 50.0 °F 88% 30.14 in 10.0 mi SSW 5.8 mph - N/A   Clear
1:15 AM 53.6 °F 50.0 °F 88% 30.14 in 10.0 mi SSW 6.9 mph - N/A   Clear
1:35 AM 53.6 °F 50.0 °F 88% 30.14 in 10.0 mi SSW 5.8 mph - N/A   Clear
1:55 AM 53.6 °F 50.0 °F 88% 30.14 in 10.0 mi South 5.8 mph - N/A   Clear
2:15 AM 53.6 °F 50.0 °F 88% 30.13 in 10.0 mi South 4.6 mph - N/A   Clear
2:35 AM 53.6 °F 50.0 °F 88% 30.13 in 10.0 mi South 5.8 mph - N/A   Clear
2:55 AM 53.6 °F 48.2 °F 82% 30.13 in 10.0 mi South 5.8 mph - N/A   Clear
3:15 AM 53.6 °F 50.0 °F 88% 30.12 in 10.0 mi SSW 5.8 mph - N/A   Clear
3:35 AM 51.8 °F 48.2 °F 88% 30.12 in 7.0 mi South 5.8 mph - N/A   Clear
3:55 AM 51.8 °F 48.2 °F 88% 30.12 in 7.0 mi South 4.6 mph - N/A   Clear
4:15 AM 51.8 °F 48.2 °F 88% 30.12 in 7.0 mi South 4.6 mph - N/A   Clear
4:35 AM 50.0 °F 48.2 °F 94% 30.12 in 5.0 mi South 5.8 mph - N/A   Clear
4:55 AM 50.0 °F 48.2 °F 94% 30.12 in 5.0 mi South 5.8 mph - N/A   Clear
5:15 AM 50.0 °F 48.2 °F 94% 30.12 in 5.0 mi South 5.8 mph - N/A   Clear
5:35 AM 50.0 °F 48.2 °F 94% 30.12 in 5.0 mi South 6.9 mph - N/A   Clear
5:55 AM 50.0 °F 46.4 °F 87% 30.12 in 5.0 mi South 6.9 mph - N/A   Clear
6:15 AM 50.0 °F 46.4 °F 87% 30.12 in 4.0 mi South 6.9 mph - N/A   Clear
6:35 AM 50.0 °F 46.4 °F 87% 30.12 in 4.0 mi South 6.9 mph - N/A   Clear
6:55 AM 50.0 °F 46.4 °F 87% 30.13 in 4.0 mi South 6.9 mph - N/A   Clear
7:15 AM 50.0 °F 46.4 °F 87% 30.13 in 2.5 mi South 6.9 mph - N/A   Clear
7:35 AM 50.0 °F 46.4 °F 87% 30.14 in 2.0 mi South 6.9 mph - N/A   Clear
7:55 AM 50.0 °F 48.2 °F 94% 30.14 in 2.0 mi South 5.8 mph - N/A   Clear
8:15 AM 51.8 °F 50.0 °F 94% 30.15 in 2.0 mi South 8.1 mph - N/A   Overcast
8:35 AM 51.8 °F 50.0 °F 94% 30.15 in 2.0 mi South 8.1 mph - N/A   Overcast
8:55 AM 51.8 °F 51.8 °F 100% 30.15 in 3.0 mi SSW 6.9 mph - N/A   Mostly Cloudy
9:15 AM 53.6 °F 51.8 °F 94% 30.15 in 5.0 mi South 6.9 mph - N/A   Scattered Clouds
9:35 AM 57.2 °F 53.6 °F 88% 30.15 in 7.0 mi SSW 9.2 mph - N/A   Clear
9:55 AM 60.8 °F 53.6 °F 77% 30.16 in 10.0 mi SSW 9.2 mph 17.3 mph N/A   Clear
10:15 AM 60.8 °F 53.6 °F 77% 30.16 in 10.0 mi SSW 9.2 mph 16.1 mph N/A   Clear
10:35 AM 64.4 °F 53.6 °F 68% 30.16 in 10.0 mi SSW 11.5 mph 17.3 mph N/A   Clear
10:55 AM 68.0 °F 53.6 °F 60% 30.15 in 10.0 mi SW 13.8 mph 21.9 mph N/A   Clear
11:15 AM 68.0 °F 53.6 °F 60% 30.14 in 10.0 mi SW 15.0 mph 20.7 mph N/A   Clear
11:35 AM 69.8 °F 53.6 °F 56% 30.13 in 10.0 mi SSW 13.8 mph - N/A   Clear
11:55 AM 71.6 °F 53.6 °F 53% 30.12 in 10.0 mi South 11.5 mph 19.6 mph N/A   Clear
12:15 PM 71.6 °F 53.6 °F 53% 30.11 in 10.0 mi SSW 11.5 mph - N/A   Clear
12:35 PM 73.4 °F 53.6 °F 50% 30.09 in 10.0 mi South 13.8 mph 19.6 mph N/A   Clear
12:55 PM 73.4 °F 53.6 °F 50% 30.08 in 10.0 mi South 11.5 mph 18.4 mph N/A   Clear
1:15 PM 73.4 °F 53.6 °F 50% 30.07 in 10.0 mi SSW 11.5 mph 18.4 mph N/A   Clear
1:35 PM 73.4 °F 53.6 °F 50% 30.06 in 10.0 mi South 9.2 mph - N/A   Clear
1:55 PM 75.2 °F 51.8 °F 44% 30.06 in 10.0 mi South 9.2 mph 17.3 mph N/A   Clear
2:15 PM 77.0 °F 51.8 °F 41% 30.05 in 10.0 mi SSW 10.4 mph 16.1 mph N/A   Clear
2:35 PM 77.0 °F 51.8 °F 41% 30.04 in 10.0 mi South 13.8 mph - N/A   Clear
2:55 PM 77.0 °F 51.8 °F 41% 30.03 in 10.0 mi SSW 11.5 mph 19.6 mph N/A   Clear
3:15 PM 77.0 °F 51.8 °F 41% 30.03 in 10.0 mi South 9.2 mph 19.6 mph N/A   Clear
3:35 PM 77.0 °F 51.8 °F 41% 30.04 in 10.0 mi SSW 9.2 mph 16.1 mph N/A   Clear
3:55 PM 77.0 °F 51.8 °F 41% 30.03 in 10.0 mi SSW 11.5 mph - N/A   Clear
4:15 PM 77.0 °F 51.8 °F 41% 30.03 in 10.0 mi South 11.5 mph - N/A   Clear
4:35 PM 77.0 °F 51.8 °F 41% 30.03 in 10.0 mi South 9.2 mph - N/A   Clear
4:55 PM 75.2 °F 51.8 °F 44% 30.03 in 10.0 mi South 9.2 mph - N/A   Clear
5:15 PM 73.4 °F 51.8 °F 47% 30.04 in 10.0 mi South 6.9 mph - N/A   Clear
5:35 PM 71.6 °F 51.8 °F 50% 30.04 in 10.0 mi South 3.5 mph - N/A   Clear
5:55 PM 69.8 °F 51.8 °F 53% 30.04 in 10.0 mi South 4.6 mph - N/A   Clear
6:15 PM 68.0 °F 53.6 °F 60% 30.05 in 10.0 mi SSE 5.8 mph - N/A   Clear
6:35 PM 68.0 °F 53.6 °F 60% 30.04 in 10.0 mi SSE 6.9 mph - N/A   Clear
6:55 PM 68.0 °F 53.6 °F 60% 30.04 in 10.0 mi SSE 6.9 mph - N/A   Clear
7:15 PM 68.0 °F 53.6 °F 60% 30.05 in 10.0 mi South 6.9 mph - N/A   Clear
7:35 PM 66.2 °F 53.6 °F 64% 30.04 in 10.0 mi South 6.9 mph - N/A   Clear
7:55 PM 64.4 °F 53.6 °F 68% 30.05 in 10.0 mi South 6.9 mph - N/A   Clear
8:15 PM 64.4 °F 53.6 °F 68% 30.05 in 10.0 mi South 6.9 mph - N/A   Clear
8:35 PM 64.4 °F 53.6 °F 68% 30.06 in 10.0 mi South 8.1 mph - N/A   Clear
8:55 PM 64.4 °F 53.6 °F 68% 30.06 in 10.0 mi South 5.8 mph - N/A   Clear
9:15 PM 62.6 °F 55.4 °F 77% 30.06 in 10.0 mi South 5.8 mph - N/A   Clear
9:35 PM 64.4 °F 55.4 °F 73% 30.06 in 10.0 mi South 6.9 mph - N/A   Clear
9:55 PM 62.6 °F 55.4 °F 77% 30.07 in 10.0 mi South 5.8 mph - N/A   Clear
10:15 PM 62.6 °F 55.4 °F 77% 30.07 in 10.0 mi South 6.9 mph - N/A   Clear
10:35 PM 62.6 °F 55.4 °F 77% 30.07 in 10.0 mi South 6.9 mph - N/A   Clear
10:55 PM 62.6 °F 55.4 °F 77% 30.07 in 10.0 mi South 5.8 mph - N/A   Clear
11:15 PM 60.8 °F 55.4 °F 82% 30.07 in 10.0 mi South 6.9 mph - N/A   Clear
11:35 PM 60.8 °F 55.4 °F 82% 30.07 in 10.0 mi South 5.8 mph - N/A   Clear
11:55 PM 60.8 °F 55.4 °F 82% 30.07 in 10.0 mi South 5.8 mph - N/A   Clear